Regional Weather Roundup
Issued by NWS State College, PA

Home | Current Version | Previous Version | Text Only | Print | Product List | Glossary On
Versions: 1 2 3 4 5 6 7 8 9 10 11 12 13 14 15 16 17 18 19 20 21 22 23 24 25 26 27 28 29 30 31 32 33 34 35 36 37 38 39 40 41 42 43 44 45 46 47 48 49 50
000
ASUS41 KCTP 271310
RWRCTP

REGIONAL WEATHER ROUNDUP
NATIONAL WEATHER SERVICE STATE COLLEGE PA
900 AM EDT WED MAY 27 2015

Note: "fair" indicates few or no clouds below 12,000 feet with no
significant weather and/or obstructions to visibility.

* = STATION THAT DOES NOT REPORT PRECIPITATION /E.G. RAIN...SNOW...ETC/
    THUNDER OR FOG.

PAZ002>004-007>009-013>016-020>023-029>032-271400-
WESTERN PENNSYLVANIA

CITY           SKY/WX    TMP DP  RH WIND       PRES   REMARKS
ERIE           MOSUNNY   71  62  73 SW13      30.05R
MEADVILLE      CLOUDY    67  62  84 SW7       30.10R
FRANKLIN*      CLOUDY    66  61  82 S10       30.14R
NEW CASTLE     CLOUDY    69  67  93 S3        30.12R
BEAVER COUNTY  PTSUNNY   66  64  94 S6        30.13R
BUTLER*        CLOUDY    66  63  88 SW6       30.16R
PITTSBURGH INT CLOUDY    68  64  87 S7        30.14S
PITTSBURGH     CLOUDY    66  61  84 S8        30.15R
INDIANA*       PTSUNNY   66  64  94 SW7       30.19R
LATROBE        LGT RAIN  66  66 100 SW10      30.18R
WASHINGTON CO* CLOUDY    66  64  94 S5        30.18R
$$

PAZ004>006-010>012-017>019-024>028-033>037-041-042-045-046-049>053-271400-
CENTRAL PENNSYLVANIA

CITY           SKY/WX    TMP DP  RH WIND       PRES   REMARKS
BRADFORD       CLOUDY    67  61  81 SW8       30.14R
DUBOIS         LGT RAIN  67  63  87 SW6       30.15R
CLEARFIELD     LGT RAIN  68  62  81 VRB6      30.16R
JOHNSTOWN      LGT RAIN  65  60  84 SW7       30.19R
ALTOONA        CLOUDY    72  61  68 SW10      30.17R
STATE COLLEGE  PTSUNNY   73  63  68 SW8       30.15R
WILLIAMSPORT   MOSUNNY   76  67  73 S7        30.11R
SELINSGROVE    PTSUNNY   77  67  71 S9G16     30.13R
FT INDIANTOWN  CLOUDY    73  68  84 S5        30.16R
CAPITAL CITY   PTSUNNY   76  67  73 S7        30.15R
HARRISBURG     PTSUNNY   77  68  73 SW10      30.14S
YORK           PTSUNNY   75  69  81 SW10      30.16S
$$

PAZ038>040-043-044-047-048-054-055-060>062-067>071-271400-
EASTERN PENNSYLVANIA

CITY           SKY/WX    TMP DP  RH WIND       PRES   REMARKS
SCRANTON       MOSUNNY   79  66  64 VRB7G16   30.13S
MOUNT POCONO   CLOUDY    70  64  81 SW10      30.19S
ALLENTOWN      CLOUDY    74  67  78 S9        30.16R
QUAKERTOWN*    CLOUDY    73  68  83 S6        30.18R
READING        CLOUDY    76  67  73 SW8       30.15R
LANCASTER      CLOUDY    74  68  81 SW7       30.17R
COATESVILLE    CLOUDY    73  72  94 W7        30.20R
POTTSTOWN      CLOUDY    75  70  84 VRB5      30.19R
BLUE BELL      CLOUDY    75  70  83 S7        30.17R
DOYLESTOWN     CLOUDY    73  68  84 S7        30.17R
WILLOW GROVE   NOT AVBL
NORTH PHILA    CLOUDY    76  66  71 SW10G21   30.19R
PHILADELPHIA   CLOUDY    76  68  76 SW13G22   30.18R
$$


USA.gov is the U.S. government's official web portal to all federal, state and local government web resources and services.